Wind_Speed
17 17 18 19 19 20 21 22 22 21 20 21 21 21 21 21 22 23 24 25 26 26 26 27 27 27 27 27 27 26 27 27 28 28 27 27 27 27 27 27 27 27 27
17 18 19 20 21 22 22 22 20 20 21 21 20 20 21 22 24 24 25 25 26 27 27 28 28 27 27 27 26 26 27 26 27 26 26 26 26 27 27 27 27 27 27
18 18 19 20 21 20 20 20 20 21 20 20 20 21 22 23 24 24 25 25 27 27 27 27 27 27 26 26 26 26 26 26 26 26 26 26 25 25 26 27 27 27 26
19 19 19 19 20 19 19 19 20 19 20 20 21 22 23 24 24 24 25 25 25 25 26 26 26 26 25 25 26 26 26 25 25 25 25 25 25 24 24 25 25 25 25
19 18 19 20 19 18 19 20 19 19 20 21 21 22 23 24 24 24 25 25 25 25 25 25 25 25 25 25 26 25 25 24 24 24 24 24 24 24 23 23 24 25 25
18 20 19 18 18 18 18 18 19 19 19 20 21 22 23 23 23 24 25 26 26 26 26 26 24 24 24 24 25 24 24 23 23 23 23 23 23 24 23 22 23 24 25
18 19 19 17 18 18 18 17 17 18 19 19 20 21 21 22 23 24 25 25 26 25 25 25 24 23 23 23 23 23 23 23 22 22 22 22 23 23 23 23 23 24 25
19 19 19 18 18 18 18 18 18 18 19 19 20 21 22 23 23 24 24 24 25 24 24 23 23 22 22 22 22 22 22 22 22 22 22 21 22 22 22 22 22 23 24
17 17 17 17 17 17 18 19 19 20 20 20 20 21 22 23 23 23 24 24 24 24 24 23 22 21 21 21 21 21 21 21 22 21 22 22 21 22 22 21 21 22 23
16 16 16 17 18 18 18 19 20 20 21 21 21 21 22 23 23 23 23 24 23 23 21 21 20 21 21 21 21 21 22 21 21 21 21 21 21 21 20 20 21 22 22
14 14 15 16 17 17 17 18 20 20 20 20 21 21 21 22 22 22 22 22 21 20 20 19 19 19 20 20 20 20 21 21 21 21 21 21 20 21 21 21 21 22 22
15 14 14 15 16 17 18 18 19 20 20 20 21 21 20 21 21 21 21 20 19 19 18 18 18 19 19 20 20 20 20 20 20 20 20 20 21 20 20 20 21 22 22
16 14 15 16 16 17 17 18 19 19 20 20 21 21 21 20 20 20 19 19 19 18 18 18 18 19 19 19 19 20 20 19 19 19 19 20 20 19 19 19 20 21 21
16 16 16 15 15 16 17 17 18 18 19 19 19 19 19 19 19 18 18 18 18 18 18 18 18 18 19 19 19 20 19 18 18 19 19 19 18 18 19 19 20 21 21
15 15 15 14 15 15 16 16 17 18 17 18 18 18 17 17 17 17 17 17 17 17 18 17 18 18 18 19 19 19 19 19 19 18 18 18 18 18 19 19 19 20 20
14 14 14 13 14 15 15 15 16 16 16 16 16 15 15 15 15 15 16 17 17 17 18 18 18 18 18 18 18 17 18 18 18 18 18 17 17 17 17 18 18 18 19
13 12 13 13 13 14 15 14 14 15 14 14 14 14 14 15 15 16 16 17 17 17 18 18 18 18 18 17 17 17 17 17 17 18 17 17 17 17 17 17 17 16 16
12 12 12 12 13 13 13 13 13 13 13 13 13 14 15 15 15 15 15 16 16 17 17 17 17 17 17 17 17 18 18 17 17 18 17 17 16 16 17 16 16 15 14
12 12 12 12 12 12 11 11 12 12 13 12 13 13 14 14 14 14 15 16 15 15 16 16 16 17 17 17 17 18 18 17 17 17 17 17 16 16 15 15 15 14 14
11 11 11 12 12 11 11 10 11 11 11 11 12 12 12 13 13 14 15 15 15 15 15 15 16 16 17 17 17 17 17 17 17 17 17 16 16 15 15 14 14 13 13
11 10 10 10 10 10 10 9 9 9 9 10 10 10 10 11 12 13 13 14 14 15 15 16 16 17 17 17 17 17 17 17 17 17 17 16 15 15 14 14 14 13 12
10 10 9 9 9 8 8 8 7 7 7 8 9 10 10 11 12 12 13 14 14 15 15 16 16 17 17 17 17 17 16 16 17 17 17 16 15 14 14 13 13 13 12
8 8 7 7 7 6 5 6 6 7 7 8 9 9 10 11 11 13 14 15 15 15 16 16 16 17 17 17 17 17 17 17 17 17 16 15 15 14 14 13 13 13 13
6 6 6 6 5 4 4 6 6 7 7 8 8 8 9 11 12 13 14 14 15 15 16 16 17 17 17 17 17 18 18 17 17 16 16 16 16 15 14 14 14 14 14
5 5 5 5 4 3 3 4 5 6 7 7 7 8 9 11 12 13 14 14 15 15 16 16 17 17 18 18 18 18 18 17 17 16 16 16 16 16 16 16 15 15 15
4 4 3 2 2 2 2 3 4 6 7 7 7 8 9 11 12 13 14 15 15 16 16 16 17 17 18 18 18 18 18 18 18 18 17 17 17 17 16 16 16 16 16
Wind_Direction
289 290 291 294 296 296 297 293 291 291 288 291 291 293 296 297 296 296 296 295 293 293 292 292 292 293 293 294 294 292 291 289 287 284 281 280 277 275 273 271 269 268 267
285 288 292 291 292 293 294 292 291 292 289 290 293 294 297 298 299 298 297 296 296 296 294 292 293 293 293 293 294 293 293 291 288 285 282 280 279 276 274 271 269 268 266
284 287 291 292 294 293 292 293 294 295 294 293 294 296 297 299 301 300 301 300 298 297 297 295 294 293 293 293 293 295 294 293 290 287 284 281 278 277 276 272 268 267 267
285 288 287 290 294 294 292 290 293 292 293 294 295 296 297 300 302 301 302 302 302 299 298 299 298 295 295 295 294 294 294 293 292 291 287 285 280 278 275 273 269 268 267
287 289 288 293 293 293 293 291 291 293 294 294 296 296 297 301 303 304 304 304 304 301 300 301 299 298 297 296 296 296 295 292 292 292 290 286 283 280 277 274 272 269 267
288 289 291 292 293 293 293 293 293 295 295 294 296 296 298 302 304 306 306 306 305 303 304 303 299 298 298 298 297 295 294 294 295 294 292 289 285 283 280 277 272 269 268
285 289 292 293 293 293 292 289 292 294 294 295 297 298 301 302 304 306 306 305 304 305 306 304 301 301 301 300 299 296 296 295 295 295 294 292 289 285 282 277 274 270 269
281 282 287 288 290 293 295 297 300 299 298 298 297 299 301 301 303 305 305 304 303 304 305 304 304 302 302 301 301 299 296 295 295 294 294 294 291 287 284 279 277 274 271
283 282 285 286 289 291 294 297 299 297 301 300 299 300 302 303 303 305 306 305 304 304 303 303 302 302 301 300 300 299 295 294 295 295 295 296 293 289 284 279 277 275 273
288 286 282 285 290 291 292 294 295 298 300 302 302 302 304 306 307 306 306 306 305 304 305 304 301 301 302 302 302 301 299 297 296 295 295 296 293 290 286 281 279 277 275
290 290 289 287 288 292 295 296 296 298 299 301 303 304 306 307 308 307 309 309 310 307 305 305 304 303 302 303 304 304 303 301 300 299 297 295 294 291 287 283 280 279 277
295 296 297 297 295 294 295 296 297 298 299 301 303 305 307 308 311 312 311 312 313 311 309 307 306 305 304 306 307 307 305 304 302 301 299 297 296 293 290 286 282 280 279
297 296 298 299 299 298 297 296 299 299 301 302 304 305 307 309 311 313 312 314 315 314 314 310 309 308 307 308 308 307 306 305 304 303 303 301 300 297 294 290 285 282 282
297 299 300 299 301 299 298 298 297 299 301 304 305 305 308 309 311 315 315 317 317 316 314 313 310 310 310 309 308 308 308 308 307 306 306 305 303 300 297 294 289 285 283
299 299 298 297 301 303 303 302 300 300 303 306 308 309 310 310 313 316 318 319 319 317 316 315 315 315 314 313 311 311 311 310 309 308 307 307 306 303 299 297 294 290 285
299 299 298 300 302 304 307 308 306 306 307 309 311 313 314 314 316 318 321 321 319 320 320 320 320 320 319 319 319 318 317 316 314 313 311 311 310 308 303 301 300 295 289
299 299 298 300 302 305 308 309 309 309 310 313 315 316 315 316 318 320 322 324 324 323 324 327 326 325 324 323 323 322 321 319 317 316 314 313 311 310 308 307 305 300 295
295 297 300 303 306 308 309 311 311 309 309 312 317 317 316 317 321 322 326 328 328 326 326 330 333 334 333 331 328 326 324 322 320 319 317 315 314 313 310 306 305 303 300
295 299 303 307 310 311 312 314 313 313 312 312 316 319 320 321 324 328 330 331 332 332 333 333 334 335 334 333 333 331 330 327 325 325 324 321 315 313 313 311 310 308 305
295 298 303 307 308 310 315 316 315 316 316 317 321 323 325 325 328 332 333 335 335 337 337 336 335 336 337 337 336 336 334 332 332 329 328 326 322 319 316 315 314 313 309
293 295 299 304 310 313 316 317 317 322 325 328 332 332 332 333 333 334 336 339 341 342 343 343 341 340 340 340 340 340 338 338 337 334 331 330 328 324 320 318 317 316 313
294 295 300 306 310 313 316 319 324 330 335 336 338 339 340 341 341 342 342 343 343 342 344 345 343 342 343 341 340 340 339 338 338 336 332 330 328 327 327 324 321 319 315
291 294 300 310 310 309 315 323 332 336 336 337 340 343 346 347 347 347 346 345 344 343 344 345 346 346 346 344 343 342 341 339 338 337 335 331 328 326 325 326 324 319 315
292 294 300 309 304 297 307 320 331 337 336 338 343 346 349 351 349 347 347 347 347 346 346 345 345 344 343 344 345 345 344 342 341 338 336 334 333 327 322 321 321 319 316
291 293 301 305 305 304 319 331 339 341 342 342 343 346 347 348 347 347 349 349 348 347 348 347 346 344 343 342 343 343 344 345 344 342 338 335 332 330 326 321 319 316 313
294 292 295 303 318 332 333 341 349 348 350 348 348 350 350 351 350 350 351 351 349 348 347 346 345 344 343 342 342 342 341 340 339 338 339 337 334 331 329 324 320 317 314
Height
5855 5854 5853 5851 5849 5848 5846 5845 5843 5841 5839 5838 5836 5834 5832 5830 5827 5825 5822 5819 5817 5814 5812 5809 5807 5805 5802 5800 5797 5795 5793 5790 5788 5785 5784 5782 5780 5779 5778 5777 5777 5777 5776
5850 5849 5848 5847 5845 5843 5841 5839 5838 5836 5835 5833 5832 5830 5828 5825 5822 5820 5817 5814 5811 5808 5806 5803 5801 5798 5795 5793 5790 5788 5786 5783 5780 5778 5776 5775 5774 5772 5771 5770 5769 5769 5769
5846 5845 5844 5842 5840 5838 5836 5835 5833 5831 5830 5829 5827 5825 5823 5820 5817 5814 5811 5808 5805 5802 5799 5797 5794 5791 5789 5786 5784 5781 5779 5776 5773 5771 5769 5768 5766 5765 5763 5762 5761 5761 5761
5841 5840 5839 5836 5834 5833 5832 5830 5829 5828 5826 5824 5822 5820 5818 5815 5812 5809 5806 5802 5799 5796 5793 5790 5787 5785 5782 5780 5777 5775 5772 5769 5766 5764 5762 5760 5758 5757 5756 5755 5754 5754 5754
5836 5835 5834 5832 5830 5828 5827 5825 5824 5823 5821 5819 5817 5815 5812 5810 5806 5803 5800 5797 5793 5790 5787 5784 5781 5779 5776 5773 5771 5768 5765 5762 5760 5757 5755 5753 5751 5750 5749 5748 5748 5747 5747
5831 5830 5829 5827 5825 5824 5822 5820 5819 5817 5815 5814 5812 5809 5807 5804 5801 5797 5794 5791 5787 5784 5781 5778 5775 5772 5770 5767 5764 5761 5758 5756 5753 5751 5748 5746 5745 5743 5742 5741 5741 5740 5740
5826 5825 5824 5822 5821 5819 5817 5815 5813 5812 5810 5808 5806 5804 5801 5798 5795 5792 5788 5785 5781 5778 5775 5772 5769 5766 5764 5761 5758 5755 5752 5749 5747 5745 5742 5740 5738 5736 5735 5734 5734 5733 5733
5821 5820 5819 5817 5816 5814 5812 5809 5808 5807 5805 5803 5801 5798 5796 5793 5790 5786 5783 5779 5776 5773 5770 5766 5763 5760 5758 5755 5752 5749 5746 5744 5741 5739 5736 5734 5732 5730 5729 5728 5727 5726 5726
5815 5815 5813 5812 5811 5809 5807 5806 5804 5802 5799 5797 5795 5793 5790 5787 5784 5781 5777 5773 5770 5767 5763 5760 5758 5755 5752 5749 5746 5744 5741 5738 5736 5733 5731 5728 5726 5724 5722 5721 5720 5720 5719
5810 5809 5807 5806 5805 5804 5803 5801 5799 5797 5795 5792 5790 5787 5784 5781 5778 5774 5771 5767 5764 5760 5757 5753 5752 5750 5747 5744 5741 5738 5735 5733 5730 5728 5725 5723 5720 5718 5716 5714 5713 5712 5712
5805 5804 5803 5801 5800 5799 5797 5796 5794 5792 5790 5788 5785 5782 5779 5776 5773 5769 5766 5762 5758 5754 5752 5749 5747 5744 5742 5739 5736 5733 5730 5728 5725 5722 5720 5717 5714 5712 5710 5708 5707 5705 5704
5800 5799 5797 5796 5795 5794 5792 5791 5789 5787 5785 5783 5780 5777 5774 5771 5768 5764 5761 5757 5754 5750 5748 5745 5743 5740 5737 5734 5731 5728 5725 5723 5720 5717 5714 5712 5709 5706 5704 5702 5700 5699 5697
5796 5794 5793 5792 5791 5789 5787 5785 5783 5782 5780 5778 5775 5772 5769 5766 5763 5760 5757 5754 5750 5747 5744 5741 5739 5736 5733 5730 5727 5724 5721 5718 5715 5712 5709 5706 5703 5701 5698 5696 5694 5693 5691
5791 5790 5789 5788 5787 5784 5782 5780 5779 5777 5775 5773 5770 5768 5765 5762 5759 5756 5753 5750 5747 5744 5741 5738 5735 5732 5728 5725 5722 5719 5716 5713 5710 5707 5704 5701 5698 5695 5693 5691 5688 5687 5685
5788 5787 5786 5784 5782 5780 5778 5776 5774 5772 5771 5768 5766 5764 5761 5759 5756 5753 5750 5747 5744 5741 5737 5734 5731 5728 5724 5721 5718 5714 5711 5708 5705 5702 5699 5696 5693 5691 5688 5685 5683 5681 5679
5784 5783 5781 5780 5778 5776 5774 5772 5770 5768 5766 5765 5762 5760 5758 5755 5753 5750 5747 5744 5741 5737 5734 5731 5727 5724 5720 5717 5714 5711 5707 5704 5701 5698 5695 5692 5689 5686 5683 5680 5678 5675 5673
5780 5779 5777 5776 5774 5773 5770 5768 5766 5764 5763 5761 5759 5757 5755 5752 5750 5747 5744 5741 5737 5734 5731 5727 5724 5720 5717 5713 5710 5707 5704 5701 5698 5695 5691 5688 5685 5682 5679 5676 5673 5671 5668
5776 5775 5773 5772 5770 5768 5767 5765 5763 5761 5760 5758 5756 5754 5752 5749 5747 5744 5741 5738 5735 5732 5728 5724 5721 5718 5714 5711 5707 5704 5700 5697 5694 5691 5688 5685 5681 5678 5675 5673 5670 5667 5665
5772 5770 5769 5768 5767 5765 5763 5762 5760 5758 5756 5755 5753 5751 5749 5746 5744 5741 5739 5736 5732 5729 5726 5722 5719 5716 5712 5708 5705 5701 5698 5694 5691 5688 5685 5681 5678 5675 5672 5669 5666 5664 5661
5768 5767 5766 5764 5763 5762 5760 5758 5757 5755 5754 5752 5750 5749 5746 5744 5741 5739 5736 5733 5730 5727 5724 5720 5717 5713 5710 5706 5702 5699 5695 5692 5688 5685 5681 5678 5675 5672 5669 5666 5663 5661 5658
5764 5763 5762 5761 5760 5759 5757 5756 5754 5753 5752 5750 5748 5746 5744 5742 5739 5737 5734 5731 5728 5725 5722 5718 5715 5711 5707 5704 5700 5697 5693 5690 5686 5682 5678 5675 5672 5669 5666 5663 5661 5658 5656
5760 5760 5759 5758 5757 5756 5755 5754 5752 5751 5750 5748 5747 5745 5743 5740 5738 5735 5733 5730 5727 5724 5720 5717 5713 5710 5706 5702 5699 5695 5691 5687 5684 5680 5676 5673 5670 5666 5663 5660 5658 5655 5653
5757 5756 5756 5755 5754 5753 5753 5752 5751 5750 5748 5747 5745 5743 5741 5739 5737 5734 5731 5728 5725 5722 5719 5715 5712 5708 5705 5701 5697 5693 5689 5685 5682 5678 5674 5671 5667 5664 5661 5658 5655 5653 5651
5754 5754 5753 5753 5752 5751 5751 5750 5749 5748 5747 5745 5744 5742 5740 5738 5736 5733 5730 5727 5724 5721 5717 5714 5710 5707 5703 5700 5696 5692 5687 5683 5679 5676 5672 5669 5665 5662 5659 5656 5653 5651 5648
5751 5751 5751 5750 5750 5750 5749 5749 5748 5747 5745 5744 5742 5741 5739 5737 5735 5732 5729 5726 5723 5719 5716 5713 5709 5705 5702 5698 5694 5690 5686 5682 5678 5674 5670 5667 5663 5660 5656 5654 5651 5648 5646
5749 5749 5749 5749 5749 5749 5748 5748 5747 5746 5744 5743 5741 5740 5738 5736 5734 5731 5728 5725 5722 5718 5715 5711 5707 5704 5700 5696 5692 5688 5684 5680 5676 5672 5668 5665 5661 5658 5654 5651 5648 5645 5642